owner,sensor,date,latitude,longitude,vertical_datum,direction_of_sea_water_velocity,sea_water_speed,upward_sea_water_velocity,qcFlag 
WAVCIS,ioos:station:WAVCIS:CSI16:1,2011-02-01T00:00:00Z,29.4012,-89.0355,10.86,296.0,0.327,-99999.0,'11133222,11111222,99999999' 
WAVCIS,ioos:station:WAVCIS:CSI16:1,2011-02-01T01:00:00Z,29.4012,-89.0355,10.86,309.0,0.426,-99999.0,'11133222,11111222,99999999' 
WAVCIS,ioos:station:WAVCIS:CSI16:1,2011-02-01T02:00:00Z,29.4012,-89.0355,10.86,314.0,0.454,-99999.0,'11133222,11111222,99999999' 
WAVCIS,ioos:station:WAVCIS:CSI16:1,2011-02-01T03:00:00Z,29.4012,-89.0355,10.86,340.0,0.329,-99999.0,'11133222,11111222,99999999' 
WAVCIS,ioos:station:WAVCIS:CSI16:1,2011-02-01T04:00:00Z,29.4012,-89.0355,10.36,5.0,0.192,-99999.0,'11133222,11111222,99999999' 
WAVCIS,ioos:station:WAVCIS:CSI16:1,2011-02-01T05:00:00Z,29.4012,-89.0355,10.36,40.0,0.175,-99999.0,'11133222,11111222,99999999' 
WAVCIS,ioos:station:WAVCIS:CSI16:1,2011-02-01T06:00:00Z,29.4012,-89.0355,10.36,74.0,0.186,-99999.0,'11133222,11111222,99999999' 
WAVCIS,ioos:station:WAVCIS:CSI16:1,2011-02-01T07:00:00Z,29.4012,-89.0355,10.36,96.0,0.241,-99999.0,'11133222,11111222,99999999' 
WAVCIS,ioos:station:WAVCIS:CSI16:1,2011-02-01T08:00:00Z,29.4012,-89.0355,10.36,90.0,0.352,-99999.0,'11133222,11111222,99999999' 
WAVCIS,ioos:station:WAVCIS:CSI16:1,2011-02-01T09:00:00Z,29.4012,-89.0355,10.36,90.0,0.282,-99999.0,'11133222,11111222,99999999' 
WAVCIS,ioos:station:WAVCIS:CSI16:1,2011-02-01T10:00:00Z,29.4012,-89.0355,9.86,177.0,0.204,-99999.0,'11133222,11111222,99999999' 
WAVCIS,ioos:station:WAVCIS:CSI16:1,2011-02-01T11:00:00Z,29.4012,-89.0355,9.86,157.0,0.309,-99999.0,'11133222,11111222,99999999' 
WAVCIS,ioos:station:WAVCIS:CSI16:1,2011-02-01T12:00:00Z,29.4012,-89.0355,9.86,172.0,0.206,-99999.0,'11133222,11111222,99999999' 
WAVCIS,ioos:station:WAVCIS:CSI16:1,2011-02-01T13:00:00Z,29.4012,-89.0355,10.36,194.0,0.188,-99999.0,'11133222,11111222,99999999' 
WAVCIS,ioos:station:WAVCIS:CSI16:1,2011-02-01T14:00:00Z,29.4012,-89.0355,10.36,209.0,0.184,-99999.0,'11133222,11111222,99999999' 
WAVCIS,ioos:station:WAVCIS:CSI16:1,2011-02-01T15:00:00Z,29.4012,-89.0355,10.36,207.0,0.206,-99999.0,'11133222,11111222,99999999' 
WAVCIS,ioos:station:WAVCIS:CSI16:1,2011-02-01T16:00:00Z,29.4012,-89.0355,10.36,231.0,0.22,-99999.0,'11133222,11111222,99999999' 
WAVCIS,ioos:station:WAVCIS:CSI16:1,2011-02-01T17:00:00Z,29.4012,-89.0355,10.36,240.0,0.244,-99999.0,'11133222,11111222,99999999' 
WAVCIS,ioos:station:WAVCIS:CSI16:1,2011-02-01T18:00:00Z,29.4012,-89.0355,10.36,253.0,0.155,-99999.0,'11133222,11111222,99999999' 
WAVCIS,ioos:station:WAVCIS:CSI16:1,2011-02-01T19:00:00Z,29.4012,-89.0355,10.36,297.0,0.341,-99999.0,'11133222,11111222,99999999' 
WAVCIS,ioos:station:WAVCIS:CSI16:1,2011-02-01T20:00:00Z,29.4012,-89.0355,10.36,306.0,0.358,-99999.0,'11133222,11111222,99999999' 
WAVCIS,ioos:station:WAVCIS:CSI16:1,2011-02-01T21:00:00Z,29.4012,-89.0355,10.36,315.0,0.349,-99999.0,'11133222,11111222,99999999' 
WAVCIS,ioos:station:WAVCIS:CSI16:1,2011-02-01T22:00:00Z,29.4012,-89.0355,10.36,314.0,0.32,-99999.0,'11133222,11111222,99999999' 
WAVCIS,ioos:station:WAVCIS:CSI16:1,2011-02-01T23:00:00Z,29.4012,-89.0355,10.36,341.0,0.29,-99999.0,'11133222,11111222,99999999' 
WAVCIS,ioos:station:WAVCIS:CSI16:1,2011-02-02T00:00:00Z,29.4012,-89.0355,10.36,360.0,0.25,-99999.0,'11133222,11144222,99999999' 
WAVCIS,ioos:station:WAVCIS:CSI16:1,2011-02-02T01:00:00Z,29.4012,-89.0355,10.36,22.0,0.219,-99999.0,'11133222,11111222,99999999' 
WAVCIS,ioos:station:WAVCIS:CSI16:1,2011-02-02T02:00:00Z,29.4012,-89.0355,10.36,40.0,0.192,-99999.0,'11133222,11111222,99999999' 
WAVCIS,ioos:station:WAVCIS:CSI16:1,2011-02-02T03:00:00Z,29.4012,-89.0355,10.36,77.0,0.227,-99999.0,'11133222,11111222,99999999' 
WAVCIS,ioos:station:WAVCIS:CSI16:1,2011-02-02T04:00:00Z,29.4012,-89.0355,10.36,90.0,0.279,-99999.0,'11133222,11111222,99999999' 
WAVCIS,ioos:station:WAVCIS:CSI16:1,2011-02-02T05:00:00Z,29.4012,-89.0355,10.36,98.0,0.329,-99999.0,'11133222,11111222,99999999' 
WAVCIS,ioos:station:WAVCIS:CSI16:1,2011-02-02T06:00:00Z,29.4012,-89.0355,10.36,105.0,0.348,-99999.0,'11133222,11111222,99999999' 
WAVCIS,ioos:station:WAVCIS:CSI16:1,2011-02-02T07:00:00Z,29.4012,-89.0355,10.36,109.0,0.351,-99999.0,'11133222,11111222,99999999' 
WAVCIS,ioos:station:WAVCIS:CSI16:1,2011-02-02T08:00:00Z,29.4012,-89.0355,9.86,146.0,0.199,-99999.0,'11133222,11111222,99999999' 
WAVCIS,ioos:station:WAVCIS:CSI16:1,2011-02-02T09:00:00Z,29.4012,-89.0355,9.86,157.0,0.219,-99999.0,'11133222,11111222,99999999' 
WAVCIS,ioos:station:WAVCIS:CSI16:1,2011-02-02T10:00:00Z,29.4012,-89.0355,9.86,160.0,0.208,-99999.0,'11133222,11111222,99999999' 
WAVCIS,ioos:station:WAVCIS:CSI16:1,2011-02-02T11:00:00Z,29.4012,-89.0355,9.86,153.0,0.272,-99999.0,'11133222,11111222,99999999' 
WAVCIS,ioos:station:WAVCIS:CSI16:1,2011-02-02T12:00:00Z,29.4012,-89.0355,9.86,151.0,0.324,-99999.0,'11133222,11111222,99999999' 
WAVCIS,ioos:station:WAVCIS:CSI16:1,2011-02-02T13:00:00Z,29.4012,-89.0355,9.86,159.0,0.28,-99999.0,'11133222,11111222,99999999' 
WAVCIS,ioos:station:WAVCIS:CSI16:1,2011-02-02T14:00:00Z,29.4012,-89.0355,9.86,174.0,0.222,-99999.0,'11133222,11111222,99999999' 
WAVCIS,ioos:station:WAVCIS:CSI16:1,2011-02-02T15:00:00Z,29.4012,-89.0355,9.86,159.0,0.251,-99999.0,'11133222,11111222,99999999' 
WAVCIS,ioos:station:WAVCIS:CSI16:1,2011-02-02T16:00:00Z,29.4012,-89.0355,9.86,157.0,0.243,-99999.0,'11133222,11111222,99999999' 
WAVCIS,ioos:station:WAVCIS:CSI16:1,2011-02-02T17:00:00Z,29.4012,-89.0355,9.86,181.0,0.254,-99999.0,'11133222,11111222,99999999' 
WAVCIS,ioos:station:WAVCIS:CSI16:1,2011-02-02T18:00:00Z,29.4012,-89.0355,10.36,180.0,0.238,-99999.0,'11133222,11111222,99999999' 
WAVCIS,ioos:station:WAVCIS:CSI16:1,2011-02-02T19:00:00Z,29.4012,-89.0355,10.36,183.0,0.171,-99999.0,'11133222,11111222,99999999' 
WAVCIS,ioos:station:WAVCIS:CSI16:1,2011-02-02T20:00:00Z,29.4012,-89.0355,10.36,182.0,0.24,-99999.0,'11133222,11111222,99999999' 
WAVCIS,ioos:station:WAVCIS:CSI16:1,2011-02-02T21:00:00Z,29.4012,-89.0355,10.36,179.0,0.225,-99999.0,'11133222,11111222,99999999' 
WAVCIS,ioos:station:WAVCIS:CSI16:1,2011-02-02T22:00:00Z,29.4012,-89.0355,10.36,178.0,0.217,-99999.0,'11133222,11111222,99999999' 
WAVCIS,ioos:station:WAVCIS:CSI16:1,2011-02-02T23:00:00Z,29.4012,-89.0355,10.36,173.0,0.224,-99999.0,'11133222,11111222,99999999' 
WAVCIS,ioos:station:WAVCIS:CSI16:1,2011-02-03T00:00:00Z,29.4012,-89.0355,10.36,173.0,0.184,-99999.0,'11133222,11111222,99999999' 
WAVCIS,ioos:station:WAVCIS:CSI16:1,2011-02-03T01:00:00Z,29.4012,-89.0355,10.36,180.0,0.208,-99999.0,'11133222,11111222,99999999' 
WAVCIS,ioos:station:WAVCIS:CSI16:1,2011-02-03T02:00:00Z,29.4012,-89.0355,10.36,171.0,0.221,-99999.0,'11133222,11111222,99999999' 
WAVCIS,ioos:station:WAVCIS:CSI16:1,2011-02-03T03:00:00Z,29.4012,-89.0355,10.36,169.0,0.213,-99999.0,'11133222,11111222,99999999' 
WAVCIS,ioos:station:WAVCIS:CSI16:1,2011-02-03T04:00:00Z,29.4012,-89.0355,10.36,186.0,0.231,-99999.0,'11133222,11111222,99999999' 
WAVCIS,ioos:station:WAVCIS:CSI16:1,2011-02-03T05:00:00Z,29.4012,-89.0355,10.36,177.0,0.198,-99999.0,'11133222,11111222,99999999' 
WAVCIS,ioos:station:WAVCIS:CSI16:1,2011-02-03T06:00:00Z,29.4012,-89.0355,9.86,173.0,0.183,-99999.0,'11133222,11111222,99999999' 
WAVCIS,ioos:station:WAVCIS:CSI16:1,2011-02-03T07:00:00Z,29.4012,-89.0355,9.86,158.0,0.246,-99999.0,'11133222,11111222,99999999' 
WAVCIS,ioos:station:WAVCIS:CSI16:1,2011-02-03T08:00:00Z,29.4012,-89.0355,9.86,152.0,0.35,-99999.0,'11133222,11111222,99999999' 
WAVCIS,ioos:station:WAVCIS:CSI16:1,2011-02-03T09:00:00Z,29.4012,-89.0355,9.86,153.0,0.339,-99999.0,'11133222,11111222,99999999' 
WAVCIS,ioos:station:WAVCIS:CSI16:1,2011-02-03T10:00:00Z,29.4012,-89.0355,9.86,151.0,0.37,-99999.0,'11133222,11111222,99999999' 
WAVCIS,ioos:station:WAVCIS:CSI16:1,2011-02-03T11:00:00Z,29.4012,-89.0355,9.86,151.0,0.385,-99999.0,'11133222,11111222,99999999' 
WAVCIS,ioos:station:WAVCIS:CSI16:1,2011-02-03T12:00:00Z,29.4012,-89.0355,9.86,153.0,0.28,-99999.0,'11133222,11111222,99999999' 
WAVCIS,ioos:station:WAVCIS:CSI16:1,2011-02-03T13:00:00Z,29.4012,-89.0355,9.86,153.0,0.271,-99999.0,'11133222,11111222,99999999' 
WAVCIS,ioos:station:WAVCIS:CSI16:1,2011-02-03T14:00:00Z,29.4012,-89.0355,9.86,150.0,0.268,-99999.0,'11133222,11111222,99999999' 
WAVCIS,ioos:station:WAVCIS:CSI16:1,2011-02-03T15:00:00Z,29.4012,-89.0355,9.86,150.0,0.399,-99999.0,'11133222,11111222,99999999' 
WAVCIS,ioos:station:WAVCIS:CSI16:1,2011-02-03T16:00:00Z,29.4012,-89.0355,9.86,175.0,0.196,-99999.0,'11133222,11111222,99999999' 
WAVCIS,ioos:station:WAVCIS:CSI16:1,2011-02-03T17:00:00Z,29.4012,-89.0355,9.86,181.0,0.259,-99999.0,'11133222,11111222,99999999' 
WAVCIS,ioos:station:WAVCIS:CSI16:1,2011-02-03T18:00:00Z,29.4012,-89.0355,10.36,181.0,0.272,-99999.0,'11133222,11111222,99999999' 
WAVCIS,ioos:station:WAVCIS:CSI16:1,2011-02-03T19:00:00Z,29.4012,-89.0355,10.36,173.0,0.237,-99999.0,'11133222,11111222,99999999' 
WAVCIS,ioos:station:WAVCIS:CSI16:1,2011-02-03T20:00:00Z,29.4012,-89.0355,10.36,179.0,0.237,-99999.0,'11133222,11111222,99999999' 
WAVCIS,ioos:station:WAVCIS:CSI16:1,2011-02-03T21:00:00Z,29.4012,-89.0355,10.36,180.0,0.194,-99999.0,'11133222,11111222,99999999' 
WAVCIS,ioos:station:WAVCIS:CSI16:1,2011-02-03T22:00:00Z,29.4012,-89.0355,10.36,176.0,0.19,-99999.0,'11133222,11111222,99999999' 
WAVCIS,ioos:station:WAVCIS:CSI16:1,2011-02-03T23:00:00Z,29.4012,-89.0355,10.36,181.0,0.138,-99999.0,'11133222,11111222,99999999' 
WAVCIS,ioos:station:WAVCIS:CSI16:1,2011-02-04T00:00:00Z,29.4012,-89.0355,10.36,190.0,0.179,-99999.0,'11133222,11111222,99999999' 
WAVCIS,ioos:station:WAVCIS:CSI16:1,2011-02-04T01:00:00Z,29.4012,-89.0355,10.36,205.0,0.173,-99999.0,'11133222,11111222,99999999' 
WAVCIS,ioos:station:WAVCIS:CSI16:1,2011-02-04T02:00:00Z,29.4012,-89.0355,10.36,196.0,0.153,-99999.0,'11133222,11111222,99999999' 
WAVCIS,ioos:station:WAVCIS:CSI16:1,2011-02-04T03:00:00Z,29.4012,-89.0355,10.36,192.0,0.15,-99999.0,'11133222,11111222,99999999' 
WAVCIS,ioos:station:WAVCIS:CSI16:1,2011-02-04T04:00:00Z,29.4012,-89.0355,10.36,191.0,0.104,-99999.0,'11133222,11111222,99999999' 
WAVCIS,ioos:station:WAVCIS:CSI16:1,2011-02-04T05:00:00Z,29.4012,-89.0355,10.36,182.0,0.047,-99999.0,'11133222,11111222,99999999' 
WAVCIS,ioos:station:WAVCIS:CSI16:1,2011-02-04T06:00:00Z,29.4012,-89.0355,10.36,165.0,0.087,-99999.0,'11133222,11111222,99999999' 
WAVCIS,ioos:station:WAVCIS:CSI16:1,2011-02-04T07:00:00Z,29.4012,-89.0355,10.36,169.0,0.152,-99999.0,'11133222,11111222,99999999' 
WAVCIS,ioos:station:WAVCIS:CSI16:1,2011-02-04T08:00:00Z,29.4012,-89.0355,10.36,161.0,0.182,-99999.0,'11133222,11111222,99999999' 
WAVCIS,ioos:station:WAVCIS:CSI16:1,2011-02-04T09:00:00Z,29.4012,-89.0355,10.36,154.0,0.247,-99999.0,'11133222,11111222,99999999' 
WAVCIS,ioos:station:WAVCIS:CSI16:1,2011-02-04T10:00:00Z,29.4012,-89.0355,9.86,152.0,0.272,-99999.0,'11133222,11111222,99999999' 
WAVCIS,ioos:station:WAVCIS:CSI16:1,2011-02-04T11:00:00Z,29.4012,-89.0355,9.86,153.0,0.306,-99999.0,'11133222,11111222,99999999' 
WAVCIS,ioos:station:WAVCIS:CSI16:1,2011-02-04T12:00:00Z,29.4012,-89.0355,9.86,153.0,0.333,-99999.0,'11133222,11111222,99999999' 
WAVCIS,ioos:station:WAVCIS:CSI16:1,2011-02-04T13:00:00Z,29.4012,-89.0355,9.86,154.0,0.232,-99999.0,'11133222,11111222,99999999' 
WAVCIS,ioos:station:WAVCIS:CSI16:1,2011-02-04T14:00:00Z,29.4012,-89.0355,9.86,155.0,0.218,-99999.0,'11133222,11111222,99999999' 
WAVCIS,ioos:station:WAVCIS:CSI16:1,2011-02-04T15:00:00Z,29.4012,-89.0355,9.86,152.0,0.255,-99999.0,'11133222,11111222,99999999' 
WAVCIS,ioos:station:WAVCIS:CSI16:1,2011-02-04T16:00:00Z,29.4012,-89.0355,9.86,150.0,0.256,-99999.0,'11133222,11111222,99999999' 
WAVCIS,ioos:station:WAVCIS:CSI16:1,2011-02-04T17:00:00Z,29.4012,-89.0355,9.86,162.0,0.25,-99999.0,'11133222,11111222,99999999' 
WAVCIS,ioos:station:WAVCIS:CSI16:1,2011-02-04T19:00:00Z,29.4012,-89.0355,9.86,182.0,0.283,-99999.0,'11133222,11111222,99999999' 
WAVCIS,ioos:station:WAVCIS:CSI16:1,2011-02-04T20:00:00Z,29.4012,-89.0355,9.86,180.0,0.258,-99999.0,'11133222,11111222,99999999' 
WAVCIS,ioos:station:WAVCIS:CSI16:1,2011-02-04T21:00:00Z,29.4012,-89.0355,9.86,181.0,0.27,-99999.0,'11133222,11111222,99999999' 
WAVCIS,ioos:station:WAVCIS:CSI16:1,2011-02-04T22:00:00Z,29.4012,-89.0355,9.86,182.0,0.203,-99999.0,'11133222,11111222,99999999' 
WAVCIS,ioos:station:WAVCIS:CSI16:1,2011-02-04T23:00:00Z,29.4012,-89.0355,9.86,174.0,0.211,-99999.0,'11133222,11111222,99999999' 
WAVCIS,ioos:station:WAVCIS:CSI16:1,2011-02-05T00:00:00Z,29.4012,-89.0355,10.36,177.0,0.208,-99999.0,'11133222,11111222,99999999' 
WAVCIS,ioos:station:WAVCIS:CSI16:1,2011-02-05T01:00:00Z,29.4012,-89.0355,10.36,185.0,0.191,-99999.0,'11133222,11111222,99999999' 
WAVCIS,ioos:station:WAVCIS:CSI16:1,2011-02-05T02:00:00Z,29.4012,-89.0355,10.36,186.0,0.207,-99999.0,'11133222,11111222,99999999' 
WAVCIS,ioos:station:WAVCIS:CSI16:1,2011-02-05T03:00:00Z,29.4012,-89.0355,10.36,189.0,0.134,-99999.0,'11133222,11111222,99999999' 
WAVCIS,ioos:station:WAVCIS:CSI16:1,2011-02-05T04:00:00Z,29.4012,-89.0355,10.36,194.0,0.114,-99999.0,'11133222,11111222,99999999' 
WAVCIS,ioos:station:WAVCIS:CSI16:1,2011-02-05T05:00:00Z,29.4012,-89.0355,10.36,182.0,0.142,-99999.0,'11133222,11111222,99999999' 
WAVCIS,ioos:station:WAVCIS:CSI16:1,2011-02-05T06:00:00Z,29.4012,-89.0355,10.36,166.0,0.121,-99999.0,'11133222,11111222,99999999' 
WAVCIS,ioos:station:WAVCIS:CSI16:1,2011-02-05T07:00:00Z,29.4012,-89.0355,10.36,150.0,0.12,-99999.0,'11133222,11111222,99999999' 
WAVCIS,ioos:station:WAVCIS:CSI16:1,2011-02-05T08:00:00Z,29.4012,-89.0355,10.36,153.0,0.122,-99999.0,'11133222,11111222,99999999' 
WAVCIS,ioos:station:WAVCIS:CSI16:1,2011-02-05T09:00:00Z,29.4012,-89.0355,10.36,150.0,0.124,-99999.0,'11133222,11111222,99999999' 
WAVCIS,ioos:station:WAVCIS:CSI16:1,2011-02-05T10:00:00Z,29.4012,-89.0355,10.36,139.0,0.149,-99999.0,'11133222,11111222,99999999' 
WAVCIS,ioos:station:WAVCIS:CSI16:1,2011-02-05T11:00:00Z,29.4012,-89.0355,10.36,126.0,0.138,-99999.0,'11133222,11111222,99999999' 
WAVCIS,ioos:station:WAVCIS:CSI16:1,2011-02-05T12:00:00Z,29.4012,-89.0355,10.36,115.0,0.107,-99999.0,'11133222,11111222,99999999' 
WAVCIS,ioos:station:WAVCIS:CSI16:1,2011-02-05T13:00:00Z,29.4012,-89.0355,10.36,176.0,0.065,-99999.0,'11133222,11111222,99999999' 
WAVCIS,ioos:station:WAVCIS:CSI16:1,2011-02-05T14:00:00Z,29.4012,-89.0355,10.36,142.0,0.023,-99999.0,'11133222,11111222,99999999' 
WAVCIS,ioos:station:WAVCIS:CSI16:1,2011-02-05T15:00:00Z,29.4012,-89.0355,10.36,226.0,0.045,-99999.0,'11133222,11111222,99999999' 
WAVCIS,ioos:station:WAVCIS:CSI16:1,2011-02-05T16:00:00Z,29.4012,-89.0355,10.36,213.0,0.037,-99999.0,'11133222,11111222,99999999' 
WAVCIS,ioos:station:WAVCIS:CSI16:1,2011-02-05T17:00:00Z,29.4012,-89.0355,10.36,218.0,0.018,-99999.0,'11133222,11111222,99999999' 
WAVCIS,ioos:station:WAVCIS:CSI16:1,2011-02-05T18:00:00Z,29.4012,-89.0355,10.36,276.0,0.028,-99999.0,'11133222,11111222,99999999' 
WAVCIS,ioos:station:WAVCIS:CSI16:1,2011-02-05T19:00:00Z,29.4012,-89.0355,10.36,274.0,0.052,-99999.0,'11133222,11111222,99999999' 
WAVCIS,ioos:station:WAVCIS:CSI16:1,2011-02-05T20:00:00Z,29.4012,-89.0355,10.36,290.0,0.081,-99999.0,'11133222,11111222,99999999' 
WAVCIS,ioos:station:WAVCIS:CSI16:1,2011-02-05T21:00:00Z,29.4012,-89.0355,10.36,351.0,0.169,-99999.0,'11133222,11111222,99999999' 
WAVCIS,ioos:station:WAVCIS:CSI16:1,2011-02-05T22:00:00Z,29.4012,-89.0355,10.36,331.0,0.107,-99999.0,'11133222,11111222,99999999' 
WAVCIS,ioos:station:WAVCIS:CSI16:1,2011-02-05T23:00:00Z,29.4012,-89.0355,10.36,339.0,0.115,-99999.0,'11133222,11111222,99999999' 
WAVCIS,ioos:station:WAVCIS:CSI16:1,2011-02-06T00:00:00Z,29.4012,-89.0355,10.36,355.0,0.105,-99999.0,'11133222,11111222,99999999' 
WAVCIS,ioos:station:WAVCIS:CSI16:1,2011-02-06T01:00:00Z,29.4012,-89.0355,10.36,69.0,0.09,-99999.0,'11133222,11111222,99999999' 
WAVCIS,ioos:station:WAVCIS:CSI16:1,2011-02-06T02:00:00Z,29.4012,-89.0355,10.36,60.0,0.086,-99999.0,'11133222,11111222,99999999' 
WAVCIS,ioos:station:WAVCIS:CSI16:1,2011-02-06T03:00:00Z,29.4012,-89.0355,10.36,48.0,0.078,-99999.0,'11133222,11111222,99999999' 
WAVCIS,ioos:station:WAVCIS:CSI16:1,2011-02-06T04:00:00Z,29.4012,-89.0355,10.36,59.0,0.117,-99999.0,'11133222,11111222,99999999' 
WAVCIS,ioos:station:WAVCIS:CSI16:1,2011-02-06T05:00:00Z,29.4012,-89.0355,10.36,41.0,0.091,-99999.0,'11133222,11111222,99999999' 
WAVCIS,ioos:station:WAVCIS:CSI16:1,2011-02-06T06:00:00Z,29.4012,-89.0355,10.36,27.0,0.119,-99999.0,'11133222,11111222,99999999' 
WAVCIS,ioos:station:WAVCIS:CSI16:1,2011-02-06T07:00:00Z,29.4012,-89.0355,10.36,44.0,0.095,-99999.0,'11133222,11111222,99999999' 
WAVCIS,ioos:station:WAVCIS:CSI16:1,2011-02-06T08:00:00Z,29.4012,-89.0355,10.36,26.0,0.106,-99999.0,'11133222,11111222,99999999' 
WAVCIS,ioos:station:WAVCIS:CSI16:1,2011-02-06T09:00:00Z,29.4012,-89.0355,10.36,62.0,0.09,-99999.0,'11133222,11111222,99999999' 
WAVCIS,ioos:station:WAVCIS:CSI16:1,2011-02-06T10:00:00Z,29.4012,-89.0355,10.36,62.0,0.098,-99999.0,'11133222,11111222,99999999' 
WAVCIS,ioos:station:WAVCIS:CSI16:1,2011-02-06T11:00:00Z,29.4012,-89.0355,10.36,87.0,0.15,-99999.0,'11133222,11111222,99999999' 
WAVCIS,ioos:station:WAVCIS:CSI16:1,2011-02-06T12:00:00Z,29.4012,-89.0355,10.36,118.0,0.235,-99999.0,'11133222,11111222,99999999' 
WAVCIS,ioos:station:WAVCIS:CSI16:1,2011-02-06T13:00:00Z,29.4012,-89.0355,10.36,113.0,0.224,-99999.0,'11133222,11111222,99999999' 
WAVCIS,ioos:station:WAVCIS:CSI16:1,2011-02-06T14:00:00Z,29.4012,-89.0355,10.36,99.0,0.168,-99999.0,'11133222,11111222,99999999' 
WAVCIS,ioos:station:WAVCIS:CSI16:1,2011-02-06T15:00:00Z,29.4012,-89.0355,10.36,96.0,0.098,-99999.0,'11133222,11111222,99999999' 
WAVCIS,ioos:station:WAVCIS:CSI16:1,2011-02-06T16:00:00Z,29.4012,-89.0355,10.36,41.0,0.089,-99999.0,'11133222,11111222,99999999' 
WAVCIS,ioos:station:WAVCIS:CSI16:1,2011-02-06T17:00:00Z,29.4012,-89.0355,10.36,28.0,0.141,-99999.0,'11133222,11111222,99999999' 
WAVCIS,ioos:station:WAVCIS:CSI16:1,2011-02-06T18:00:00Z,29.4012,-89.0355,10.36,36.0,0.089,-99999.0,'11133222,11111222,99999999' 
WAVCIS,ioos:station:WAVCIS:CSI16:1,2011-02-06T19:00:00Z,29.4012,-89.0355,10.36,40.0,0.116,-99999.0,'11133222,11111222,99999999' 
WAVCIS,ioos:station:WAVCIS:CSI16:1,2011-02-06T20:00:00Z,29.4012,-89.0355,10.36,21.0,0.16,-99999.0,'11133222,11111222,99999999' 
WAVCIS,ioos:station:WAVCIS:CSI16:1,2011-02-06T21:00:00Z,29.4012,-89.0355,10.36,21.0,0.145,-99999.0,'11133222,11111222,99999999' 
WAVCIS,ioos:station:WAVCIS:CSI16:1,2011-02-06T22:00:00Z,29.4012,-89.0355,10.36,341.0,0.185,-99999.0,'11133222,11111222,99999999' 
WAVCIS,ioos:station:WAVCIS:CSI16:1,2011-02-06T23:00:00Z,29.4012,-89.0355,10.36,322.0,0.188,-99999.0,'11133222,11111222,99999999' 
WAVCIS,ioos:station:WAVCIS:CSI16:1,2011-02-07T00:00:00Z,29.4012,-89.0355,10.36,318.0,0.218,-99999.0,'11133222,11111222,99999999' 
WAVCIS,ioos:station:WAVCIS:CSI16:1,2011-02-07T01:00:00Z,29.4012,-89.0355,10.36,314.0,0.221,-99999.0,'11133222,11111222,99999999' 
WAVCIS,ioos:station:WAVCIS:CSI16:1,2011-02-07T02:00:00Z,29.4012,-89.0355,10.36,320.0,0.164,-99999.0,'11133222,11111222,99999999' 
WAVCIS,ioos:station:WAVCIS:CSI16:1,2011-02-07T03:00:00Z,29.4012,-89.0355,10.36,302.0,0.173,-99999.0,'11133222,11111222,99999999' 
WAVCIS,ioos:station:WAVCIS:CSI16:1,2011-02-07T04:00:00Z,29.4012,-89.0355,10.36,335.0,0.152,-99999.0,'11133222,11111222,99999999' 
WAVCIS,ioos:station:WAVCIS:CSI16:1,2011-02-07T05:00:00Z,29.4012,-89.0355,10.36,350.0,0.089,-99999.0,'11133222,11111222,99999999' 
WAVCIS,ioos:station:WAVCIS:CSI16:1,2011-02-07T06:00:00Z,29.4012,-89.0355,10.36,43.0,0.023,-99999.0,'11133222,11111222,99999999' 
WAVCIS,ioos:station:WAVCIS:CSI16:1,2011-02-07T07:00:00Z,29.4012,-89.0355,10.36,30.0,0.112,-99999.0,'11133222,11111222,99999999' 
WAVCIS,ioos:station:WAVCIS:CSI16:1,2011-02-07T08:00:00Z,29.4012,-89.0355,10.36,16.0,0.102,-99999.0,'11133222,11111222,99999999' 
WAVCIS,ioos:station:WAVCIS:CSI16:1,2011-02-07T09:00:00Z,29.4012,-89.0355,10.36,9.0,0.126,-99999.0,'11133222,11111222,99999999' 
WAVCIS,ioos:station:WAVCIS:CSI16:1,2011-02-07T10:00:00Z,29.4012,-89.0355,10.36,19.0,0.099,-99999.0,'11133222,11111222,99999999' 
WAVCIS,ioos:station:WAVCIS:CSI16:1,2011-02-07T11:00:00Z,29.4012,-89.0355,10.36,43.0,0.076,-99999.0,'11133222,11111222,99999999' 
WAVCIS,ioos:station:WAVCIS:CSI16:1,2011-02-07T12:00:00Z,29.4012,-89.0355,10.36,358.0,0.086,-99999.0,'11133222,11111222,99999999' 
WAVCIS,ioos:station:WAVCIS:CSI16:1,2011-02-07T13:00:00Z,29.4012,-89.0355,10.36,352.0,0.114,-99999.0,'11133222,11111222,99999999' 
WAVCIS,ioos:station:WAVCIS:CSI16:1,2011-02-07T14:00:00Z,29.4012,-89.0355,10.36,333.0,0.145,-99999.0,'11133222,11111222,99999999' 
WAVCIS,ioos:station:WAVCIS:CSI16:1,2011-02-07T15:00:00Z,29.4012,-89.0355,10.36,344.0,0.13,-99999.0,'11133222,11111222,99999999' 
WAVCIS,ioos:station:WAVCIS:CSI16:1,2011-02-07T16:00:00Z,29.4012,-89.0355,10.36,336.0,0.167,-99999.0,'11133222,11111222,99999999' 
WAVCIS,ioos:station:WAVCIS:CSI16:1,2011-02-07T17:00:00Z,29.4012,-89.0355,10.36,6.0,0.092,-99999.0,'11133222,11111222,99999999' 
WAVCIS,ioos:station:WAVCIS:CSI16:1,2011-02-07T18:00:00Z,29.4012,-89.0355,10.36,73.0,0.192,-99999.0,'11133222,11111222,99999999' 
WAVCIS,ioos:station:WAVCIS:CSI16:1,2011-02-07T19:00:00Z,29.4012,-89.0355,10.36,101.0,0.522,-99999.0,'11133222,11111222,99999999' 
WAVCIS,ioos:station:WAVCIS:CSI16:1,2011-02-07T20:00:00Z,29.4012,-89.0355,9.86,97.0,0.508,-99999.0,'11133222,11111222,99999999' 
WAVCIS,ioos:station:WAVCIS:CSI16:1,2011-02-07T21:00:00Z,29.4012,-89.0355,10.36,102.0,0.424,-99999.0,'11133222,11111222,99999999' 
WAVCIS,ioos:station:WAVCIS:CSI16:1,2011-02-07T22:00:00Z,29.4012,-89.0355,9.86,85.0,0.283,-99999.0,'11133222,11111222,99999999' 
WAVCIS,ioos:station:WAVCIS:CSI16:1,2011-02-07T23:00:00Z,29.4012,-89.0355,9.86,98.0,0.268,-99999.0,'11133222,11111222,99999999' 
WAVCIS,ioos:station:WAVCIS:CSI16:1,2011-02-08T00:00:00Z,29.4012,-89.0355,9.86,120.0,0.15,-99999.0,'11133222,11111222,99999999' 
WAVCIS,ioos:station:WAVCIS:CSI16:1,2011-02-08T01:00:00Z,29.4012,-89.0355,9.86,150.0,0.124,-99999.0,'11133222,11111222,99999999' 
WAVCIS,ioos:station:WAVCIS:CSI16:1,2011-02-08T02:00:00Z,29.4012,-89.0355,9.86,156.0,0.286,-99999.0,'11133222,11111222,99999999' 
WAVCIS,ioos:station:WAVCIS:CSI16:1,2011-02-08T03:00:00Z,29.4012,-89.0355,9.86,155.0,0.13,-99999.0,'11133222,11111222,99999999' 
WAVCIS,ioos:station:WAVCIS:CSI16:1,2011-02-08T04:00:00Z,29.4012,-89.0355,9.86,156.0,0.226,-99999.0,'11133222,11111222,99999999' 
WAVCIS,ioos:station:WAVCIS:CSI16:1,2011-02-08T05:00:00Z,29.4012,-89.0355,9.86,172.0,0.192,-99999.0,'11133222,11111222,99999999' 
WAVCIS,ioos:station:WAVCIS:CSI16:1,2011-02-08T06:00:00Z,29.4012,-89.0355,9.86,178.0,0.224,-99999.0,'11133222,11111222,99999999' 
WAVCIS,ioos:station:WAVCIS:CSI16:1,2011-02-08T07:00:00Z,29.4012,-89.0355,9.86,200.0,0.167,-99999.0,'11133222,11111222,99999999' 
WAVCIS,ioos:station:WAVCIS:CSI16:1,2011-02-08T08:00:00Z,29.4012,-89.0355,9.86,208.0,0.166,-99999.0,'11133222,11111222,99999999' 
WAVCIS,ioos:station:WAVCIS:CSI16:1,2011-02-08T09:00:00Z,29.4012,-89.0355,10.36,212.0,0.149,-99999.0,'11133222,11111222,99999999' 
WAVCIS,ioos:station:WAVCIS:CSI16:1,2011-02-08T10:00:00Z,29.4012,-89.0355,10.36,204.0,0.13,-99999.0,'11133222,11111222,99999999' 
WAVCIS,ioos:station:WAVCIS:CSI16:1,2011-02-08T11:00:00Z,29.4012,-89.0355,10.36,187.0,0.118,-99999.0,'11133222,11111222,99999999' 
WAVCIS,ioos:station:WAVCIS:CSI16:1,2011-02-08T12:00:00Z,29.4012,-89.0355,10.36,178.0,0.16,-99999.0,'11133222,11111222,99999999' 
WAVCIS,ioos:station:WAVCIS:CSI16:1,2011-02-08T13:00:00Z,29.4012,-89.0355,10.36,182.0,0.124,-99999.0,'11133222,11111222,99999999' 
WAVCIS,ioos:station:WAVCIS:CSI16:1,2011-02-08T14:00:00Z,29.4012,-89.0355,10.36,188.0,0.082,-99999.0,'11133222,11111222,99999999' 
WAVCIS,ioos:station:WAVCIS:CSI16:1,2011-02-08T15:00:00Z,29.4012,-89.0355,10.36,203.0,0.098,-99999.0,'11133222,11111222,99999999' 
WAVCIS,ioos:station:WAVCIS:CSI16:1,2011-02-08T16:00:00Z,29.4012,-89.0355,10.36,201.0,0.092,-99999.0,'11133222,11111222,99999999' 